Wind_Speed
9 9 9 9 9 9 9 9 8 8 8 8 7 7 7 8 7 7 7 6 7 7 7 7 8 8 8 8 8 8 8 9 9 9 10 10 10 11 11 11 11 11 11
10 11 10 10 11 10 10 10 9 8 8 8 8 8 8 9 8 8 8 7 8 8 8 9 9 9 9 9 9 9 10 10 10 10 11 11 11 12 12 12 12 12 12
12 11 11 11 11 11 11 10 10 9 9 9 9 9 9 9 9 9 9 9 9 10 9 10 10 10 10 10 10 10 10 11 11 11 12 12 12 13 13 13 13 13 13
12 12 12 12 12 11 11 11 10 10 10 10 10 10 11 11 11 11 11 11 11 11 11 11 11 11 11 11 11 11 12 12 12 13 13 13 13 13 13 14 14 14 14
13 13 13 13 12 12 11 11 11 11 11 12 12 12 12 12 12 12 12 12 12 12 12 13 13 13 13 13 13 13 13 13 13 13 13 13 13 14 14 14 15 15 15
15 14 14 14 14 13 12 12 12 12 12 12 12 13 13 13 13 13 13 13 13 14 14 14 13 14 14 15 15 14 15 15 14 14 14 14 14 14 15 15 16 16 16
16 16 15 15 15 14 13 13 13 12 12 13 14 14 14 14 14 14 15 15 15 15 15 15 15 15 15 16 16 16 16 16 15 15 15 15 14 15 16 16 16 17 17
16 16 16 16 15 14 14 13 12 13 13 14 15 15 15 16 16 16 16 16 16 16 15 15 15 15 16 16 17 17 17 17 17 16 16 16 15 16 16 17 17 17 18
18 17 17 16 14 14 13 13 13 14 15 15 15 16 17 17 17 17 17 17 17 16 16 16 16 16 16 17 17 18 18 18 18 17 16 16 16 17 18 18 18 18 18
17 17 17 15 14 14 15 14 15 16 16 16 16 16 17 17 17 17 17 18 17 18 17 17 17 17 17 18 18 18 19 19 18 18 17 17 17 18 18 18 18 19 19
17 16 17 17 16 16 16 16 16 16 17 17 18 17 17 17 17 17 18 18 18 18 18 18 18 18 18 18 19 19 19 19 19 19 18 18 18 19 19 19 19 19 20
18 18 17 18 17 17 17 17 17 17 18 19 19 19 18 18 18 19 19 19 19 19 19 20 20 20 20 20 20 20 20 20 20 20 20 19 20 20 20 20 20 20 21
18 18 18 18 18 18 18 18 19 19 20 20 20 20 20 20 19 20 20 20 20 21 21 21 21 21 21 21 21 20 21 21 21 21 20 20 21 21 21 21 21 21 21
19 19 19 19 19 20 21 21 20 20 20 21 21 21 22 22 21 22 22 21 22 22 22 22 22 22 22 22 21 21 21 22 22 21 21 21 21 21 21 22 22 22 22
20 20 20 21 21 21 22 22 21 21 22 23 23 23 24 24 23 24 24 23 23 23 23 23 23 23 23 22 22 22 22 22 22 23 23 22 23 22 22 23 23 23 24
21 21 21 21 21 21 22 23 21 22 23 24 24 24 24 25 25 25 25 24 25 25 24 24 24 24 24 23 23 23 22 23 23 23 24 24 24 24 23 24 24 24 25
21 22 22 22 22 21 22 23 23 23 24 25 25 25 25 25 25 25 26 26 25 25 25 25 25 25 25 25 24 24 24 24 25 25 25 25 25 25 25 26 26 26 26
22 23 23 23 23 23 24 24 24 25 25 25 25 25 25 25 25 26 25 26 26 26 26 26 26 25 26 25 25 25 25 26 26 27 27 25 25 25 26 27 27 27 27
23 23 23 23 23 24 24 24 24 26 26 26 26 26 26 25 25 25 25 25 26 26 26 27 27 27 26 26 25 25 26 27 27 27 27 27 27 27 27 28 28 29 29
21 22 22 23 23 23 24 25 25 25 25 26 26 25 26 26 25 25 25 25 25 26 26 26 26 27 26 26 25 25 26 27 28 28 28 28 28 28 28 28 29 30 31
20 20 20 21 21 22 23 24 23 23 24 25 25 25 25 25 25 25 25 25 25 26 26 26 26 26 26 26 26 26 26 27 28 28 28 28 28 29 30 29 29 30 31
20 20 20 20 21 22 22 23 23 23 23 23 24 23 23 24 23 24 25 25 25 25 25 26 26 26 26 26 27 27 26 26 26 27 28 28 29 30 30 30 30 30 31
19 20 19 20 21 22 22 22 23 24 23 22 23 24 23 24 23 24 24 24 24 25 25 26 25 25 26 26 27 28 28 27 26 27 28 28 29 29 30 30 31 31 32
19 19 19 19 19 20 21 21 21 22 22 22 23 23 23 24 24 24 24 25 25 25 25 24 25 26 27 27 28 28 28 28 28 27 27 29 30 30 30 31 31 32 32
18 18 18 17 18 19 19 19 19 20 21 22 22 22 22 23 24 24 25 25 25 24 24 25 26 27 28 28 28 28 28 29 28 28 28 29 31 31 31 31 31 32 32
16 16 16 16 17 17 17 18 19 19 20 21 21 22 23 23 24 25 25 25 24 24 25 25 26 28 28 28 28 28 29 29 29 30 30 31 31 32 32 31 32 32 33
Wind_Direction
254 257 263 268 269 269 273 274 273 271 270 270 270 268 270 273 275 282 286 286 285 285 285 289 291 289 290 293 294 295 291 281 276 273 270 268 266 264 261 261 260 259 257
258 259 265 272 274 270 273 273 269 271 276 277 274 270 272 276 279 283 287 290 289 287 286 288 289 289 288 290 291 292 289 284 276 274 272 270 268 266 263 261 259 258 256
258 262 267 271 274 271 271 270 270 273 276 278 277 275 276 278 281 284 287 289 290 289 287 288 288 290 289 289 291 288 286 285 276 273 272 271 270 268 265 263 260 258 257
260 263 266 271 273 268 269 270 270 272 275 278 278 278 277 278 281 285 288 290 291 290 289 289 289 289 290 290 288 287 286 284 278 274 273 272 270 269 268 264 261 259 257
260 263 266 269 271 268 268 267 269 271 274 276 278 279 280 280 283 286 287 288 290 290 290 291 290 290 290 288 286 286 284 282 280 278 274 273 271 269 266 266 264 262 259
264 265 267 268 269 267 264 266 267 271 273 276 279 279 281 281 283 285 287 288 290 291 290 291 291 292 291 288 285 284 281 280 279 279 277 273 273 272 268 266 265 264 262
266 266 266 266 268 268 266 267 267 269 272 276 280 281 282 282 283 284 287 290 292 293 291 290 290 291 291 290 287 284 282 281 279 278 278 275 273 271 270 268 266 264 263
264 263 263 263 264 266 267 268 269 272 276 279 281 284 285 285 286 286 287 289 292 294 294 293 292 291 290 291 289 286 283 283 279 276 275 275 273 272 271 270 267 263 262
265 262 263 265 263 265 269 270 270 275 279 281 283 285 286 286 286 287 287 288 289 291 292 293 293 292 292 292 290 287 285 284 281 279 277 275 273 271 271 270 267 264 262
265 264 263 265 267 269 272 275 279 282 282 285 287 288 290 289 288 289 288 288 289 290 291 292 292 293 292 291 289 288 286 285 282 280 278 275 273 272 271 268 268 267 264
269 269 267 270 275 276 275 280 282 281 283 287 288 289 293 293 292 292 291 290 290 292 291 291 292 292 292 292 290 288 286 285 283 282 280 278 276 275 273 270 268 268 265
270 274 272 270 273 274 276 280 281 280 284 286 287 290 294 293 293 293 292 294 293 294 293 292 292 292 291 291 290 289 287 284 282 281 280 278 277 276 275 272 269 268 265
270 270 273 272 274 275 277 279 280 282 284 285 288 289 291 292 293 295 292 296 294 293 293 293 291 290 291 290 288 286 284 283 283 282 281 279 277 275 274 273 270 268 267
270 268 268 274 275 279 280 277 279 282 285 287 288 289 291 292 293 293 292 293 293 293 293 292 290 290 290 289 288 286 285 284 285 282 280 279 277 275 274 273 272 270 268
270 271 272 274 276 280 282 279 278 283 286 287 288 290 292 291 292 293 294 293 292 291 291 291 290 289 289 288 287 287 285 285 284 283 280 279 278 276 275 274 272 271 269
268 272 272 275 278 280 282 283 283 286 288 288 288 289 291 291 291 292 293 293 291 291 290 291 291 290 290 289 288 286 285 285 284 284 282 279 278 276 275 275 273 270 270
268 272 272 273 277 278 281 282 283 287 288 289 290 290 291 292 290 290 290 290 291 290 290 291 292 290 290 289 287 284 283 286 285 284 283 281 278 275 274 274 273 271 268
268 269 271 273 276 277 280 282 282 284 285 287 288 290 291 292 291 290 290 290 290 290 291 292 292 292 292 290 287 285 283 283 284 283 283 281 277 274 273 272 272 271 269
268 268 271 272 274 276 280 282 283 285 286 287 289 290 291 291 291 291 290 291 291 291 293 291 290 292 293 291 287 286 284 282 283 284 282 281 279 277 275 273 271 271 270
273 272 273 272 274 276 280 282 284 287 287 290 291 290 290 290 291 291 290 290 290 290 291 291 290 292 292 291 289 288 287 286 286 284 284 283 281 280 278 277 274 271 269
275 274 274 274 275 276 280 282 283 285 287 290 290 292 293 292 292 292 292 293 292 292 292 292 291 292 293 292 291 290 290 290 289 287 285 284 283 282 281 279 276 274 271
274 275 275 275 277 278 278 279 282 282 285 290 291 293 294 294 294 293 294 296 295 293 292 292 291 291 292 292 291 291 291 289 287 286 285 285 284 283 283 281 278 275 273
276 275 276 277 279 281 281 282 283 283 285 290 292 293 294 295 296 295 295 296 296 295 292 292 293 292 291 291 291 291 291 291 288 287 287 286 286 285 283 281 279 277 275
282 278 276 279 281 281 284 286 286 286 289 291 293 294 294 296 297 297 298 297 297 296 294 295 294 293 293 293 291 291 291 291 290 288 288 287 287 286 285 283 281 279 277
286 284 284 282 283 281 284 286 288 290 291 292 294 297 298 298 298 298 299 297 296 296 298 297 296 296 295 294 292 292 291 291 291 290 288 287 287 287 286 284 281 280 278
288 286 287 290 288 288 289 289 292 293 293 294 297 299 299 299 299 299 301 300 299 299 300 301 299 298 297 296 295 293 292 292 293 291 290 288 287 288 287 284 281 279 276
Height
5882 5881 5882 5882 5882 5882 5882 5882 5882 5882 5882 5882 5882 5882 5881 5881 5881 5880 5879 5879 5878 5878 5877 5876 5876 5875 5875 5874 5874 5873 5873 5872 5872 5872 5872 5872 5872 5872 5873 5873 5873 5874 5874
5881 5881 5881 5881 5881 5881 5881 5881 5881 5881 5881 5881 5880 5880 5880 5880 5880 5879 5878 5878 5877 5876 5876 5875 5874 5874 5873 5872 5872 5871 5871 5871 5870 5870 5870 5870 5870 5871 5871 5871 5871 5872 5872
5880 5879 5879 5879 5879 5879 5879 5879 5879 5879 5879 5879 5879 5879 5878 5878 5878 5877 5877 5876 5875 5875 5874 5873 5873 5872 5871 5871 5870 5869 5869 5869 5868 5868 5868 5868 5868 5868 5868 5869 5869 5870 5870
5878 5878 5878 5878 5877 5877 5877 5877 5877 5877 5877 5877 5877 5877 5877 5876 5876 5875 5875 5874 5873 5873 5872 5871 5870 5870 5869 5868 5868 5867 5867 5866 5866 5866 5866 5866 5866 5866 5866 5866 5866 5867 5867
5876 5876 5876 5876 5876 5875 5875 5876 5876 5876 5876 5876 5875 5875 5875 5874 5874 5873 5872 5872 5871 5870 5869 5869 5868 5867 5867 5866 5865 5865 5864 5863 5863 5863 5863 5863 5863 5863 5863 5863 5864 5864 5864
5874 5874 5874 5874 5874 5874 5873 5873 5873 5873 5874 5874 5873 5873 5872 5872 5871 5871 5870 5869 5868 5868 5867 5866 5866 5865 5864 5863 5863 5862 5861 5860 5860 5860 5860 5860 5860 5860 5860 5860 5861 5861 5861
5871 5871 5871 5871 5872 5871 5871 5871 5871 5871 5871 5871 5871 5871 5870 5870 5869 5868 5867 5866 5865 5865 5864 5863 5863 5862 5861 5860 5860 5859 5858 5857 5857 5857 5857 5857 5857 5857 5857 5857 5857 5857 5858
5869 5869 5869 5869 5869 5869 5869 5869 5869 5869 5869 5869 5868 5868 5868 5867 5866 5865 5864 5863 5863 5862 5861 5860 5859 5858 5858 5857 5856 5856 5855 5854 5854 5854 5854 5853 5854 5853 5853 5853 5853 5854 5854
5865 5866 5866 5866 5866 5866 5866 5866 5866 5866 5866 5866 5865 5865 5865 5864 5863 5862 5861 5860 5859 5859 5858 5857 5856 5855 5854 5853 5853 5852 5851 5851 5850 5850 5850 5850 5850 5849 5849 5850 5850 5850 5850
5861 5863 5863 5863 5863 5863 5864 5864 5864 5863 5863 5863 5862 5862 5862 5861 5860 5859 5858 5857 5856 5855 5854 5854 5853 5852 5851 5850 5849 5848 5848 5847 5847 5846 5846 5846 5846 5845 5845 5845 5846 5846 5846
5858 5860 5860 5860 5861 5861 5860 5860 5860 5860 5860 5860 5859 5859 5858 5858 5857 5856 5854 5853 5852 5851 5851 5850 5849 5848 5847 5846 5845 5844 5843 5843 5843 5843 5843 5842 5842 5841 5841 5841 5841 5841 5842
5856 5856 5857 5857 5858 5857 5857 5857 5857 5857 5857 5856 5856 5855 5854 5854 5853 5852 5851 5850 5849 5848 5847 5846 5845 5844 5843 5842 5841 5840 5839 5839 5839 5838 5838 5838 5838 5837 5837 5837 5837 5837 5837
5853 5853 5853 5854 5854 5853 5853 5853 5853 5853 5853 5853 5852 5851 5851 5850 5849 5848 5847 5846 5845 5844 5843 5842 5841 5840 5839 5838 5837 5836 5835 5834 5834 5834 5833 5833 5833 5832 5832 5832 5832 5832 5832
5849 5849 5849 5850 5850 5850 5849 5849 5849 5849 5849 5848 5848 5847 5847 5846 5845 5844 5843 5841 5840 5839 5838 5837 5836 5835 5834 5833 5832 5831 5830 5829 5829 5828 5828 5828 5827 5827 5827 5827 5827 5827 5827
5846 5846 5846 5846 5846 5846 5845 5843 5844 5844 5844 5844 5843 5843 5842 5841 5840 5839 5838 5837 5836 5834 5833 5832 5831 5830 5829 5827 5826 5826 5825 5824 5823 5823 5822 5822 5822 5821 5821 5821 5821 5821 5822
5841 5841 5842 5842 5842 5842 5841 5840 5839 5839 5840 5839 5839 5838 5837 5836 5835 5834 5833 5832 5830 5829 5828 5827 5825 5824 5823 5822 5821 5820 5820 5819 5818 5817 5817 5816 5816 5815 5815 5815 5815 5815 5815
5837 5837 5838 5838 5838 5838 5837 5837 5836 5835 5835 5834 5834 5833 5832 5831 5829 5829 5828 5826 5825 5824 5822 5821 5819 5819 5817 5816 5815 5814 5814 5813 5812 5811 5810 5810 5810 5809 5809 5809 5809 5808 5808
5834 5834 5834 5834 5834 5833 5833 5833 5832 5831 5830 5829 5829 5828 5826 5825 5824 5823 5822 5820 5819 5818 5816 5815 5814 5813 5812 5810 5809 5808 5808 5807 5806 5805 5804 5803 5803 5803 5802 5802 5801 5801 5801
5829 5829 5829 5829 5829 5829 5828 5828 5827 5826 5825 5824 5823 5822 5821 5819 5818 5817 5815 5814 5813 5812 5810 5809 5808 5807 5805 5804 5803 5802 5801 5800 5799 5798 5797 5796 5796 5795 5795 5795 5794 5794 5793
5824 5824 5824 5824 5824 5824 5823 5822 5822 5821 5820 5819 5818 5817 5815 5813 5812 5810 5809 5808 5807 5805 5804 5803 5802 5800 5799 5798 5796 5795 5794 5793 5792 5791 5790 5789 5788 5788 5787 5787 5786 5786 5786
5819 5819 5819 5819 5819 5819 5818 5818 5817 5816 5815 5814 5813 5811 5809 5807 5806 5804 5803 5802 5801 5799 5798 5797 5796 5794 5793 5791 5790 5789 5788 5786 5785 5783 5782 5782 5781 5780 5779 5778 5778 5778 5777
5815 5815 5815 5815 5815 5814 5813 5812 5812 5811 5810 5809 5807 5805 5803 5802 5800 5799 5798 5796 5794 5793 5792 5791 5789 5788 5786 5785 5783 5781 5781 5780 5778 5777 5775 5774 5773 5772 5771 5770 5769 5769 5768
5810 5811 5810 5810 5810 5809 5808 5808 5807 5806 5805 5804 5802 5800 5798 5797 5795 5794 5792 5790 5789 5788 5786 5785 5783 5781 5780 5778 5776 5774 5773 5772 5771 5770 5768 5766 5765 5763 5762 5761 5760 5759 5758
5807 5806 5806 5806 5806 5805 5804 5803 5802 5801 5800 5799 5797 5795 5794 5792 5790 5788 5787 5785 5784 5782 5780 5779 5777 5775 5773 5771 5769 5767 5765 5764 5762 5762 5760 5758 5756 5755 5753 5752 5750 5749 5748
5803 5803 5802 5802 5802 5801 5800 5799 5798 5796 5795 5794 5792 5790 5789 5787 5785 5783 5781 5780 5778 5776 5774 5773 5771 5768 5766 5764 5762 5760 5758 5756 5754 5752 5752 5750 5747 5745 5744 5742 5741 5740 5739
5800 5800 5799 5799 5798 5797 5796 5794 5793 5792 5790 5789 5787 5785 5784 5782 5780 5778 5776 5774 5772 5771 5768 5766 5764 5762 5759 5757 5755 5752 5750 5748 5746 5744 5742 5740 5738 5736 5734 5732 5731 5730 5728